Flag for U.S.A. Weather past 2 weeks in Lakewood, Colorado, U.S.A.

Now
47 °F

Passing clouds.


Feels Like: 43 °F
Forecast: 25 / 51 °F
Wind: 7 mph from South

Location: Centennial Airport

Current Time: Mar 6, 2015 at 5:34:12 PM

Latest Report: Mar 6, 2015 at 4:53 PM


Visibility: 10 mi

Pressure: 30.25 "Hg

Humidity: 29%

Dew point: 16 °F

Location of LakewoodLocation

Historic Weather in Lakewood — Graph

°F

Lakewood temperature yesterday

Maximum temperature yesterday: 44 °F (at 2:53 PM)
Minimum temperature yesterday: 9 °F (at 3:53 AM)
Average temperature yesterday: 28 °F

Past Weeks' High & Low Weather Summary

 TemperatureHumidityPressure
High60 °F (Feb 19, 3:53 PM)100% (Feb 20, 6:53 PM)30.61 "Hg (Feb 20, 6:53 PM)
Low-1 °F (Feb 28, 6:53 AM)18% (Mar 6, 11:53 AM)29.54 "Hg (Mar 2, 9:01 PM)
Average22 °F71%30.18 "Hg
* Reported Feb 19 3:53 PM — Mar 6 3:53 PM, Lakewood, Weather by CustomWeather, © 2015

Note: Actual official high and low records may vary slightly from our data, if they occured in-between our weather recording intervals... More about our weather records

Advertising

Lakewood weather history for previous 24 hours

 ConditionsComfort  
Time TempWeatherWind HumidityBarometerVisibility
3:53 PM
Fri, Mar 6
48 °FSunny.7 mph25%30.27 "Hg10 mi
2:53 PM48 °FSunny.6 mph29%30.27 "Hg10 mi
1:53 PM47 °FSunny.5 mph25%30.26 "Hg10 mi
12:53 PM46 °FPassing clouds.9 mph24%30.29 "Hg10 mi
11:53 AM47 °FPassing clouds.7 mph18%30.32 "Hg10 mi
10:53 AM45 °FPassing clouds.7 mph24%30.34 "Hg10 mi
9:53 AM40 °FPassing clouds.7 mph38%30.37 "Hg10 mi
8:53 AM34 °FPassing clouds.7 mph44%30.39 "Hg10 mi
7:53 AM27 °FPassing clouds.No wind53%30.41 "Hg10 mi
6:53 AM23 °FPassing clouds.5 mph53%30.39 "Hg10 mi
5:53 AM25 °FPassing clouds.9 mph48%30.36 "Hg10 mi
4:53 AM29 °FPassing clouds.8 mph41%30.32 "Hg10 mi
3:53 AM23 °FPassing clouds.3 mph55%30.31 "Hg10 mi
2:53 AM23 °FPassing clouds.8 mph57%30.29 "Hg10 mi
1:53 AM28 °FPassing clouds.6 mph49%30.29 "Hg10 mi
12:53 AM28 °FPassing clouds.9 mph49%30.29 "Hg10 mi
11:53 PM
Thu, Mar 5
26 °FPassing clouds.10 mph57%30.31 "Hg10 mi
10:53 PM26 °FPassing clouds.6 mph66%30.33 "Hg10 mi
9:53 PM28 °FPassing clouds.7 mph64%30.34 "Hg10 mi
8:53 PM27 °FPassing clouds.6 mph66%30.37 "Hg10 mi
7:53 PM28 °FPassing clouds.No wind72%30.39 "Hg10 mi
6:53 PM30 °FPassing clouds.No wind66%30.38 "Hg10 mi
5:53 PM33 °FPartly sunny.No wind61%30.37 "Hg10 mi
Weather by CustomWeather, © 2015

See weather overviewHow to use our weather pages